HAZ3616 ZPPP-ZGGG

Flight info

Callsign HAZ3616
Flight time 1h 18m
Altitude 41100
Route LXI9W LXI A599 GYA GYA7
Aircraft A359/H-SDE2E3GHIJ3J4J5LM1ORWXY/LB1D1

Departure

Time 2026-05-04 01:08
Airport Kunming Changshui International Airport (ZPPP)

Arrival

Time 2026-05-04 02:27
Airport Guangzhou Baiyun International Airport (ZGGG)
Time Latitude Longitude Altitude Speed Heading
2026-05-04 00:55 25.10369 102.92345 6927 ft 0 kts 218°
2026-05-04 01:01 25.10370 102.92345 6927 ft 1 kts 218°
2026-05-04 01:01 25.10378 102.92352 6927 ft 1 kts 218°
2026-05-04 01:01 25.10385 102.92358 6940 ft 1 kts 218°
2026-05-04 01:01 25.10393 102.92365 6927 ft 1 kts 218°
2026-05-04 01:02 25.10400 102.92371 6937 ft 2 kts 221°
2026-05-04 01:02 25.10408 102.92380 6936 ft 0 kts 236°
2026-05-04 01:02 25.10415 102.92394 6927 ft 3 kts 251°
2026-05-04 01:02 25.10419 102.92415 6927 ft 3 kts 272°
2026-05-04 01:03 25.10416 102.92436 6927 ft 3 kts 293°
2026-05-04 01:03 25.10409 102.92451 6941 ft 0 kts 307°
2026-05-04 01:05 25.10409 102.92450 6941 ft 0 kts 307°
2026-05-04 01:05 25.10415 102.92442 6930 ft 3 kts 306°
2026-05-04 01:05 25.10438 102.92408 6928 ft 8 kts 308°
2026-05-04 01:06 25.10483 102.92347 6931 ft 13 kts 308°
2026-05-04 01:06 25.10539 102.92258 6936 ft 14 kts 282°
2026-05-04 01:06 25.10495 102.92175 6937 ft 14 kts 218°
2026-05-04 01:06 25.10410 102.92100 6933 ft 18 kts 218°
2026-05-04 01:07 25.10315 102.92003 6939 ft 17 kts 252°
2026-05-04 01:07 25.10360 102.91883 6937 ft 19 kts 320°
2026-05-04 01:07 25.10468 102.91907 6933 ft 18 kts 37°
2026-05-04 01:07 25.10665 102.92078 6935 ft 67 kts 38°
2026-05-04 01:08 25.11198 102.92541 6935 ft 126 kts 38°
2026-05-04 01:08 25.12029 102.93263 6973 ft 173 kts 38°
2026-05-04 01:08 25.12953 102.94071 7757 ft 166 kts 39°
2026-05-04 01:08 25.13925 102.94804 8407 ft 175 kts 25°
2026-05-04 01:09 25.15058 102.95328 9053 ft 178 kts 20°
2026-05-04 01:09 25.16214 102.95815 9769 ft 180 kts 19°
2026-05-04 01:09 25.17448 102.96339 10253 ft 201 kts 19°
2026-05-04 01:09 25.18828 102.96939 10583 ft 226 kts 19°
2026-05-04 01:10 25.20324 102.97747 10863 ft 256 kts 34°
2026-05-04 01:10 25.21416 102.99366 11427 ft 275 kts 69°
2026-05-04 01:10 25.21558 103.01483 12207 ft 284 kts 101°
2026-05-04 01:10 25.20726 103.03471 13022 ft 290 kts 125°
2026-05-04 01:11 25.19515 103.05293 13813 ft 300 kts 130°
2026-05-04 01:11 25.18065 103.07044 14236 ft 321 kts 135°
2026-05-04 01:11 25.16423 103.08852 14600 ft 343 kts 137°
2026-05-04 01:11 25.14660 103.10741 14960 ft 363 kts 138°
2026-05-04 01:12 25.12796 103.12712 15313 ft 381 kts 138°
2026-05-04 01:12 25.10842 103.14768 15683 ft 395 kts 138°
2026-05-04 01:12 25.08827 103.16879 16254 ft 402 kts 139°
2026-05-04 01:12 25.06782 103.19022 16885 ft 408 kts 139°
2026-05-04 01:13 25.04747 103.21159 17492 ft 413 kts 139°
2026-05-04 01:13 25.02621 103.23390 18110 ft 419 kts 139°
2026-05-04 01:13 25.00530 103.25585 18733 ft 422 kts 140°
2026-05-04 01:13 24.98395 103.27826 19261 ft 427 kts 140°
2026-05-04 01:14 24.96229 103.30098 19774 ft 432 kts 140°
2026-05-04 01:14 24.94038 103.32395 20306 ft 437 kts 140°
2026-05-04 01:14 24.91821 103.34719 20833 ft 442 kts 140°
2026-05-04 01:14 24.89586 103.37060 21360 ft 446 kts 140°
2026-05-04 01:15 24.87326 103.39427 21892 ft 451 kts 140°
2026-05-04 01:15 24.85040 103.41819 22404 ft 456 kts 140°
2026-05-04 01:15 24.82728 103.44238 22895 ft 461 kts 140°
2026-05-04 01:15 24.80392 103.46679 23420 ft 465 kts 140°
2026-05-04 01:16 24.78038 103.49139 23923 ft 470 kts 141°
2026-05-04 01:16 24.75652 103.51631 24346 ft 474 kts 141°
2026-05-04 01:16 24.73249 103.54139 24789 ft 478 kts 141°
2026-05-04 01:16 24.70828 103.56665 25294 ft 482 kts 141°
2026-05-04 01:17 24.68390 103.59207 25804 ft 485 kts 141°
2026-05-04 01:17 24.65964 103.61736 26311 ft 489 kts 141°
2026-05-04 01:17 24.63485 103.64316 26814 ft 493 kts 141°
2026-05-04 01:17 24.60953 103.66952 27349 ft 496 kts 141°
2026-05-04 01:18 24.58477 103.69535 27844 ft 500 kts 141°
2026-05-04 01:18 24.56104 103.72373 28340 ft 510 kts 133°
2026-05-04 01:18 24.54175 103.75683 28822 ft 521 kts 120°
2026-05-04 01:18 24.52778 103.79369 29311 ft 528 kts 111°
2026-05-04 01:19 24.51733 103.83273 29786 ft 534 kts 106°
2026-05-04 01:19 24.50892 103.87249 30239 ft 538 kts 104°
2026-05-04 01:19 24.50127 103.91294 30629 ft 542 kts 103°
2026-05-04 01:19 24.49377 103.95353 31015 ft 545 kts 103°
2026-05-04 01:20 24.48598 103.99448 31382 ft 548 kts 103°
2026-05-04 01:20 24.47785 104.03542 31746 ft 550 kts 104°
2026-05-04 01:20 24.47227 104.06263 31996 ft 552 kts 104°
2026-05-04 01:20 24.46366 104.10374 32339 ft 555 kts 105°
2026-05-04 01:21 24.45486 104.14509 32657 ft 557 kts 105°
2026-05-04 01:21 24.44294 104.20063 33116 ft 561 kts 105°
2026-05-04 01:21 24.43701 104.22820 33365 ft 561 kts 105°
2026-05-04 01:21 24.42803 104.26990 33835 ft 560 kts 105°
2026-05-04 01:22 24.41911 104.31141 34305 ft 559 kts 105°
2026-05-04 01:22 24.41017 104.35299 34700 ft 558 kts 105°
2026-05-04 01:22 24.40128 104.39432 35080 ft 557 kts 105°
2026-05-04 01:22 24.39237 104.43563 35450 ft 556 kts 105°
2026-05-04 01:23 24.38347 104.47685 35869 ft 555 kts 105°
2026-05-04 01:23 24.37462 104.51780 36273 ft 552 kts 105°
2026-05-04 01:23 24.36573 104.55887 36672 ft 551 kts 105°
2026-05-04 01:23 24.35689 104.59967 37048 ft 550 kts 105°
2026-05-04 01:24 24.34805 104.64040 37413 ft 549 kts 105°
2026-05-04 01:24 24.33924 104.68090 37775 ft 548 kts 105°
2026-05-04 01:24 24.33048 104.72119 38195 ft 546 kts 105°
2026-05-04 01:24 24.32157 104.76206 38566 ft 544 kts 105°
2026-05-04 01:25 24.31289 104.80186 38906 ft 543 kts 105°
2026-05-04 01:25 24.30406 104.84221 39150 ft 544 kts 105°
2026-05-04 01:25 24.29524 104.88244 39398 ft 544 kts 105°
2026-05-04 01:25 24.28639 104.92280 39658 ft 543 kts 105°
2026-05-04 01:26 24.27758 104.96299 39894 ft 543 kts 105°
2026-05-04 01:26 24.26875 105.00323 40114 ft 543 kts 105°
2026-05-04 01:26 24.25991 105.04339 40388 ft 542 kts 105°
2026-05-04 01:26 24.25108 105.08355 40632 ft 541 kts 105°
2026-05-04 01:27 24.24225 105.12360 40860 ft 541 kts 105°
2026-05-04 01:27 24.22455 105.20376 40926 ft 541 kts 105°
2026-05-04 01:28 24.20612 105.28374 40921 ft 541 kts 105°
2026-05-04 01:28 24.18692 105.36346 40919 ft 542 kts 106°
2026-05-04 01:29 24.16747 105.44326 40919 ft 542 kts 106°
2026-05-04 01:29 24.14805 105.52293 40915 ft 542 kts 106°
2026-05-04 01:30 24.12859 105.60274 40908 ft 543 kts 106°
2026-05-04 01:30 24.10921 105.68204 40910 ft 543 kts 106°
2026-05-04 01:31 24.09110 105.76231 40903 ft 543 kts 104°
2026-05-04 01:31 24.07485 105.84318 40899 ft 544 kts 103°
2026-05-04 01:32 24.05901 105.92412 40897 ft 544 kts 103°
2026-05-04 01:32 24.04304 106.00500 40896 ft 544 kts 103°
2026-05-04 01:33 24.02691 106.08605 40898 ft 544 kts 104°
2026-05-04 01:33 24.01071 106.16690 40890 ft 544 kts 104°
2026-05-04 01:34 23.99446 106.24765 40886 ft 544 kts 103°
2026-05-04 01:34 23.97836 106.32800 40887 ft 544 kts 104°
2026-05-04 01:35 23.96211 106.40880 40886 ft 544 kts 104°
2026-05-04 01:35 23.94570 106.48953 40884 ft 544 kts 104°
2026-05-04 01:36 23.92922 106.57030 40881 ft 544 kts 104°
2026-05-04 01:36 23.91951 106.65244 40882 ft 545 kts 95°
2026-05-04 01:37 23.91395 106.73506 40877 ft 545 kts 94°
2026-05-04 01:37 23.90888 106.81777 40879 ft 546 kts 94°
2026-05-04 01:38 23.90354 106.90058 40882 ft 546 kts 94°
2026-05-04 01:38 23.89807 106.98289 40878 ft 546 kts 94°
2026-05-04 01:39 23.89270 107.06558 40869 ft 546 kts 94°
2026-05-04 01:39 23.88720 107.14842 40875 ft 546 kts 94°
2026-05-04 01:40 23.88149 107.23117 40868 ft 546 kts 94°
2026-05-04 01:40 23.87574 107.31385 40865 ft 546 kts 95°
2026-05-04 01:41 23.86994 107.39655 40866 ft 546 kts 95°
2026-05-04 01:41 23.86407 107.47937 40863 ft 546 kts 95°
2026-05-04 01:42 23.85816 107.56209 40868 ft 546 kts 95°
2026-05-04 01:42 23.85221 107.64489 40860 ft 546 kts 95°
2026-05-04 01:43 23.84625 107.72708 40865 ft 546 kts 95°
2026-05-04 01:43 23.84021 107.80977 40864 ft 547 kts 95°
2026-05-04 01:44 23.83463 107.89267 40866 ft 546 kts 94°
2026-05-04 01:44 23.83047 107.97547 40857 ft 547 kts 93°
2026-05-04 01:45 23.82659 108.05854 40860 ft 547 kts 93°
2026-05-04 01:45 23.82032 108.18297 40854 ft 547 kts 94°
2026-05-04 01:46 23.81576 108.26535 40854 ft 548 kts 94°
2026-05-04 01:46 23.81104 108.34841 40851 ft 548 kts 94°
2026-05-04 01:47 23.80632 108.43146 40859 ft 548 kts 94°
2026-05-04 01:47 23.80155 108.51457 40848 ft 549 kts 94°
2026-05-04 01:48 23.79675 108.59774 40852 ft 549 kts 94°
2026-05-04 01:48 23.79190 108.68088 40846 ft 549 kts 94°
2026-05-04 01:49 23.78700 108.76415 40842 ft 549 kts 94°
2026-05-04 01:49 23.78206 108.84732 40844 ft 549 kts 94°
2026-05-04 01:50 23.77709 108.93051 40840 ft 549 kts 94°
2026-05-04 01:50 23.77207 109.01365 40838 ft 549 kts 94°
2026-05-04 01:51 23.76704 109.09627 40840 ft 550 kts 94°
2026-05-04 01:51 23.75710 109.17890 40842 ft 548 kts 102°
2026-05-04 01:52 23.74152 109.26026 40838 ft 548 kts 104°
2026-05-04 01:52 23.72502 109.34137 40834 ft 548 kts 104°
2026-05-04 01:53 23.70842 109.42253 40836 ft 548 kts 104°
2026-05-04 01:53 23.69189 109.50372 40841 ft 548 kts 104°
2026-05-04 01:54 23.67537 109.58494 40847 ft 548 kts 104°
2026-05-04 01:54 23.65878 109.66615 40844 ft 548 kts 104°
2026-05-04 01:55 23.64218 109.74667 40841 ft 548 kts 104°
2026-05-04 01:55 23.62538 109.82778 40843 ft 548 kts 104°
2026-05-04 01:56 23.60855 109.90886 40844 ft 548 kts 104°
2026-05-04 01:56 23.59168 109.98999 40841 ft 549 kts 104°
2026-05-04 01:57 23.57479 110.07103 40836 ft 548 kts 104°
2026-05-04 01:57 23.55785 110.15209 40838 ft 549 kts 104°
2026-05-04 01:58 23.54086 110.23317 40834 ft 549 kts 104°
2026-05-04 01:58 23.52383 110.31421 40846 ft 549 kts 104°
2026-05-04 01:59 23.50687 110.39530 40844 ft 549 kts 104°
2026-05-04 01:59 23.49036 110.47650 40829 ft 549 kts 104°
2026-05-04 02:00 23.47401 110.55720 40842 ft 549 kts 104°
2026-05-04 02:00 23.45747 110.63841 40832 ft 549 kts 104°
2026-05-04 02:01 23.44086 110.71955 40834 ft 549 kts 104°
2026-05-04 02:01 23.42391 110.80065 40837 ft 549 kts 104°
2026-05-04 02:02 23.40673 110.88178 40831 ft 549 kts 104°
2026-05-04 02:02 23.38954 110.96280 40834 ft 549 kts 104°
2026-05-04 02:03 23.37234 111.04381 40831 ft 549 kts 104°
2026-05-04 02:03 23.35512 111.12476 40830 ft 549 kts 104°
2026-05-04 02:04 23.33820 111.20563 40689 ft 546 kts 104°
2026-05-04 02:04 23.33000 111.24588 40126 ft 544 kts 104°
2026-05-04 02:04 23.32181 111.28621 39403 ft 547 kts 104°
2026-05-04 02:05 23.31355 111.32678 38623 ft 552 kts 105°
2026-05-04 02:05 23.30519 111.36769 37757 ft 555 kts 105°
2026-05-04 02:05 23.29688 111.40816 37070 ft 555 kts 105°
2026-05-04 02:05 23.28836 111.44958 36394 ft 554 kts 105°
2026-05-04 02:06 23.27992 111.49050 35715 ft 554 kts 106°
2026-05-04 02:06 23.27148 111.53136 35038 ft 554 kts 106°
2026-05-04 02:06 23.26305 111.57160 34351 ft 554 kts 106°
2026-05-04 02:06 23.25441 111.61239 33580 ft 554 kts 107°
2026-05-04 02:07 23.24565 111.65320 32698 ft 555 kts 107°
2026-05-04 02:07 23.23678 111.69417 31802 ft 558 kts 107°
2026-05-04 02:07 23.22787 111.73533 30897 ft 560 kts 107°
2026-05-04 02:07 23.21897 111.77669 29980 ft 562 kts 107°
2026-05-04 02:08 23.21010 111.81812 29023 ft 562 kts 106°
2026-05-04 02:08 23.20148 111.85943 28258 ft 559 kts 105°
2026-05-04 02:08 23.19307 111.90044 27576 ft 553 kts 105°
2026-05-04 02:08 23.18477 111.94098 26947 ft 547 kts 105°
2026-05-04 02:09 23.17651 111.98118 26273 ft 542 kts 105°
2026-05-04 02:09 23.16831 112.02095 25702 ft 536 kts 105°
2026-05-04 02:09 23.16019 112.06035 25131 ft 529 kts 105°
2026-05-04 02:09 23.15213 112.09928 24482 ft 525 kts 105°
2026-05-04 02:10 23.14426 112.13730 23874 ft 521 kts 105°
2026-05-04 02:10 23.13635 112.17540 23209 ft 515 kts 105°
2026-05-04 02:10 23.12851 112.21313 22521 ft 509 kts 105°
2026-05-04 02:10 23.12075 112.25035 21827 ft 504 kts 105°
2026-05-04 02:11 23.11304 112.28735 21186 ft 498 kts 105°
2026-05-04 02:11 23.10544 112.32380 20541 ft 492 kts 105°
2026-05-04 02:11 23.09790 112.35994 19887 ft 487 kts 105°
2026-05-04 02:11 23.09040 112.39567 19227 ft 483 kts 105°
2026-05-04 02:12 23.08299 112.43107 18573 ft 479 kts 104°
2026-05-04 02:12 23.07570 112.46608 17887 ft 474 kts 104°
2026-05-04 02:12 23.07144 112.50143 17227 ft 470 kts 94°
2026-05-04 02:12 23.07074 112.53656 16619 ft 463 kts 91°
2026-05-04 02:13 23.07063 112.57133 15990 ft 456 kts 91°
2026-05-04 02:13 23.07055 112.60557 15382 ft 450 kts 91°
2026-05-04 02:13 23.07042 112.63932 14813 ft 444 kts 91°
2026-05-04 02:13 23.07024 112.67261 14222 ft 437 kts 91°
2026-05-04 02:14 23.07000 112.70543 13548 ft 433 kts 92°
2026-05-04 02:14 23.06981 112.72700 13086 ft 429 kts 92°
2026-05-04 02:14 23.06953 112.75921 12391 ft 425 kts 91°
2026-05-04 02:14 23.06926 112.79111 11687 ft 421 kts 91°
2026-05-04 02:15 23.06901 112.82157 11018 ft 411 kts 91°
2026-05-04 02:15 23.06876 112.85157 10349 ft 383 kts 91°
2026-05-04 02:15 23.06853 112.87941 9840 ft 357 kts 91°
2026-05-04 02:15 23.06832 112.90548 9367 ft 333 kts 91°
2026-05-04 02:16 23.06811 112.92978 8968 ft 312 kts 91°
2026-05-04 02:16 23.06791 112.95263 8624 ft 293 kts 91°
2026-05-04 02:16 23.06816 112.97406 8268 ft 277 kts 87°
2026-05-04 02:16 23.06944 112.99449 7928 ft 265 kts 86°
2026-05-04 02:17 23.07082 113.01408 7543 ft 257 kts 86°
2026-05-04 02:17 23.07225 113.03318 7088 ft 252 kts 85°
2026-05-04 02:17 23.07375 113.05197 6647 ft 247 kts 85°
2026-05-04 02:17 23.07524 113.07037 6183 ft 243 kts 85°
2026-05-04 02:18 23.07671 113.08844 5744 ft 238 kts 85°
2026-05-04 02:18 23.07813 113.10618 5303 ft 233 kts 85°
2026-05-04 02:18 23.07946 113.12356 4880 ft 228 kts 85°
2026-05-04 02:18 23.08075 113.14031 4629 ft 223 kts 85°
2026-05-04 02:19 23.08205 113.15689 4426 ft 218 kts 85°
2026-05-04 02:19 23.08335 113.17318 4196 ft 215 kts 84°
2026-05-04 02:19 23.08660 113.18881 3928 ft 213 kts 63°
2026-05-04 02:19 23.09524 113.20175 3689 ft 210 kts 49°
2026-05-04 02:20 23.10519 113.21336 3446 ft 209 kts 47°
2026-05-04 02:20 23.11525 113.22466 3257 ft 207 kts 47°
2026-05-04 02:20 23.12498 113.23549 3149 ft 201 kts 46°
2026-05-04 02:20 23.13620 113.24392 3056 ft 195 kts 25°
2026-05-04 02:21 23.14895 113.24804 3004 ft 186 kts 17°
2026-05-04 02:21 23.16137 113.25125 3032 ft 181 kts 16°
2026-05-04 02:21 23.17352 113.25445 3029 ft 180 kts 17°
2026-05-04 02:21 23.18572 113.25776 3024 ft 181 kts 17°
2026-05-04 02:22 23.19777 113.26106 3017 ft 182 kts 17°
2026-05-04 02:22 23.21023 113.26450 3017 ft 181 kts 17°
2026-05-04 02:22 23.22248 113.26787 2975 ft 182 kts 17°
2026-05-04 02:22 23.23454 113.27113 2765 ft 180 kts 17°
2026-05-04 02:23 23.24665 113.27442 2514 ft 178 kts 17°
2026-05-04 02:23 23.25835 113.27757 2294 ft 169 kts 17°
2026-05-04 02:23 23.26951 113.28066 2063 ft 160 kts 17°
2026-05-04 02:23 23.28006 113.28355 1868 ft 152 kts 17°
2026-05-04 02:24 23.29017 113.28626 1684 ft 148 kts 16°
2026-05-04 02:24 23.30002 113.28887 1455 ft 142 kts 15°
2026-05-04 02:24 23.30935 113.29145 1295 ft 136 kts 16°
2026-05-04 02:24 23.31844 113.29389 1110 ft 135 kts 13°
2026-05-04 02:25 23.32742 113.29630 940 ft 130 kts 15°
2026-05-04 02:25 23.33613 113.29868 770 ft 129 kts 16°
2026-05-04 02:25 23.34489 113.30105 593 ft 130 kts 16°
2026-05-04 02:25 23.35373 113.30346 413 ft 132 kts 14°
2026-05-04 02:26 23.36265 113.30587 223 ft 131 kts 14°
2026-05-04 02:26 23.37152 113.30833 85 ft 132 kts 14°
2026-05-04 02:26 23.37971 113.31047 57 ft 98 kts 13°
2026-05-04 02:26 23.38422 113.31167 57 ft 55 kts 13°
2026-05-04 02:27 23.38749 113.31184 62 ft 40 kts 345°
2026-05-04 02:27 23.39007 113.31128 60 ft 36 kts
2026-05-04 02:27 23.39244 113.31188 62 ft 34 kts 14°
2026-05-04 02:27 23.39470 113.31249 57 ft 33 kts 14°
2026-05-04 02:28 23.39677 113.31304 60 ft 34 kts 14°
2026-05-04 02:28 23.39809 113.31340 60 ft 34 kts 14°
2026-05-04 02:28 23.39989 113.31389 57 ft 27 kts 14°
2026-05-04 02:28 23.40176 113.31440 57 ft 29 kts 14°
2026-05-04 02:29 23.40333 113.31439 59 ft 16 kts 313°
2026-05-04 02:29 23.40351 113.31339 60 ft 17 kts 278°
2026-05-04 02:29 23.40384 113.31184 64 ft 22 kts 284°
2026-05-04 02:29 23.40425 113.31007 60 ft 26 kts 284°
2026-05-04 02:30 23.40384 113.30893 58 ft 17 kts 197°
2026-05-04 02:30 23.40250 113.30855 59 ft 23 kts 194°
2026-05-04 02:30 23.40081 113.30810 60 ft 27 kts 193°
2026-05-04 02:30 23.39957 113.30753 60 ft 13 kts 240°
2026-05-04 02:31 23.39964 113.30672 63 ft 13 kts 282°
2026-05-04 02:31 23.39975 113.30557 61 ft 17 kts 274°
2026-05-04 02:31 23.39989 113.30483 57 ft 0 kts 283°
2026-05-04 02:31 23.39993 113.30466 60 ft 0 kts 284°
2026-05-04 02:32 23.39995 113.30458 60 ft 0 kts 284°